Location: Newark
(19.5361°N, 155.5761°W)
Time: 06:27:12
(UTC+00:00)

LightSail 2 - Visible Passes

Search period start: 25 January 2020 00:00
Search period end: 04 February 2020 00:00
Orbit: 704 x 719 km, 24.0° (Epoch: 24 January)

Date Brightness Start Highest point End Pass type
(mag) Time Alt. Az. Time Alt. Az. Time Alt. Az.
25 Jan 5.0 05:49:03 10° WNW 05:54:13 72° NNE 05:54:26 71° NE visible
26 Jan 5.3 04:50:34 10° WNW 04:55:40 62° N 04:59:51 15° E visible
26 Jan 6.8 06:36:08 10° W 06:38:48 30° W 06:38:48 30° W visible
27 Jan 5.1 05:37:36 10° WNW 05:42:46 83° SSW 05:44:16 47° ESE visible
28 Jan 5.1 04:39:06 10° WNW 04:44:16 80° NNE 04:49:26 10° E visible
28 Jan 6.4 06:24:52 10° W 06:28:46 37° SW 06:28:46 37° SW visible
29 Jan 5.7 05:26:12 10° W 05:31:14 55° SSW 05:34:22 22° SE visible
29 Jan 8.2 07:13:05 10° WSW 07:13:20 11° WSW 07:13:20 11° WSW visible
30 Jan 5.4 04:27:37 10° WNW 04:32:45 73° SSW 04:37:53 10° ESE visible
30 Jan 6.9 06:13:53 10° W 06:18:04 25° SSW 06:19:02 23° S visible
31 Jan 6.6 05:14:58 10° W 05:19:36 34° SSW 05:24:15 10° SE visible
01 Feb 7.7 06:03:37 10° WSW 06:06:22 14° SSW 06:09:08 10° S visible
02 Feb 7.4 05:04:07 10° WSW 05:07:54 21° SSW 05:11:41 10° SSE visible
